Weather in Plaisir

France     48°49′25″N   1°57′12″E
temp.,
°C
wind,
m/s
gust,
m/s
humid.,
%
clouds,
%
prec.,
mm/h
press.,
hPa
HPBL,
m
17 april, sat
sat1723:00+5nne37655 0.0 1027371
02:00+4n39805 0.0 1027306
05:00+3n39845 0.0 1026283
08:00+3n310836 0.0 1026339
11:00+8nne57555 0.0 1026738
14:00+12nne564561 0.0 10241767
17:00+13nne564289 0.0 10231955
20:00+11nne575021 0.0 10231085
18 april, sun
sun1823:00+7n49665 0.0 1024353
02:00+4n377235 0.0 1025215
05:00+3nnw3681100 0.0 1024184
08:00+3n357945 0.0 1024209
11:00+9n345957 0.0 1024595
14:00+12nne334768 0.0 10231589
17:00+12n234698 0.0 10221686
20:00+10nnw3564100 0.1 1022439
19 april, mon
mon1923:00+9n3673100 0.0 1023312
02:00+8nne2573100 0.0 1022261
05:00+7nne2475100 0.0 1021227
08:00+6nne247713 0.0 1021199
11:00+11nne235510 0.0 1021717
14:00+14ne2243100 0.1 10191901
17:00+13nne2349100 0.0 10181407
20:00+12nnw245583 0.0 1018365
20 april, tue
tue2023:00+11nne377099 0.1 1019320
02:00+9n258399 0.2 1018191
05:00+8nne258698 0.1 1018211
08:00+8nne258478 0.1 1018215
11:00+12nne345833 0.0 1019789
14:00+14n3347100 0.0 10181827
17:00+14nnw4451100 0.0 10171335
20:00+12nnw4764100 0.0 1018393
21 april, wed
wed2123:00+11n4882100 0.3 1019451
02:00+9n3786100 0.4 1020333
05:00+9n2584100 0.0 1020250
08:00+8n2582100 0.0 1021283
11:00+12n346449 0.0 1021792
14:00+14nnw234734 0.1 10211773
17:00+13nnw445894 0.2 1021969
20:00+13n346237 0.3 1021450